Meteo Giornale » Osservazioni meteo Italia » Catania-Fontanarossa

ore: 12:20 - Osservazioni Meteo Catania-Fontanarossa
Lat. 37° 28' N Lon. 15° 3' E Alt. 11 metri s.l.m.

nuvoloso Europe/Rome

32 °C

Nuvoloso

Temp. 24 Ore

23 °C

33 °C

Est

11.1 Km/h

Dew point 22 °C

Umidità 55 %

Visibilità  10 Km

Il sole sorge alle ore 06:08

Il sole tramonta alle ore 20:02

Data e Ora Cielo e Fenomeni T °C DP °C Um. % Pres. hPa Vis. km Vento km/h
Oggi h: 12:20 nuvoloso Nuvoloso 32 22 55 1012 10 E 11.1
Oggi h: 11:50 nuvoloso Nuvoloso 31 21 55 1013 10 E 11.1
Oggi h: 11:20 nuvoloso Nuvoloso 31 20 52 1013 10 E 11.1
Oggi h: 10:50 poco_nuvoloso Poco Nuvoloso 32 20 49 1012 10 N 9.3
Oggi h: 10:20 sereno Sereno 33 19 43 1012 10 N 5.5
Oggi h: 09:50 sereno Sereno 31 19 48 1012 10 N 5.5
Oggi h: 09:20 sereno Sereno 30 19 51 1012 10 SO 11.1
Oggi h: 08:50 sereno Sereno 29 19 54 1012 10 SO 9.3
Oggi h: 08:20 sereno Sereno 27 19 61 1012 10 O/SO 9.3
Oggi h: 07:50 sereno Sereno 26 19 65 1012 10 SO 9.3
Oggi h: 07:20 sereno Sereno 24 20 78 1011 10 S/SO 7.4
Oggi h: 06:50 sereno Sereno 23 19 78 1011 10 SO 7.4
Oggi h: 06:20 sereno Sereno 23 19 78 1011 10 O/SO 7.4
Oggi h: 05:50 sereno Sereno 23 19 78 1011 10 O 9.3
Oggi h: 05:20 sereno Sereno 23 20 83 1011 10 N 5.5
Oggi h: 04:50 sereno Sereno 24 20 78 1011 10 N 3.7
Oggi h: 04:20 sereno Sereno 24 20 78 1011 10 S/SO 7.4
Oggi h: 03:50 sereno Sereno 24 20 78 1011 10 N 5.5
Oggi h: 03:20 poco_nuvoloso Poco Nuvoloso 24 20 78 1011 10 O 9.3
Oggi h: 02:50 poco_nuvoloso Poco Nuvoloso 25 20 73 1010 10 O 9.3
Oggi h: 02:20 poco_nuvoloso Poco Nuvoloso 27 21 69 1011 10 N 1.8
Oggi h: 01:50 poco_nuvoloso Poco Nuvoloso 28 21 65 1011 10 N 7.4
Oggi h: 01:20 poco_nuvoloso Poco Nuvoloso 29 23 70 1011 10 N/NE 13
Oggi h: 00:50 poco_nuvoloso Poco Nuvoloso 27 23 78 1011 10 N 7.4
Oggi h: 00:20 poco_nuvoloso Poco Nuvoloso 27 23 78 1011 10 N 3.7
Ieri h: 23:50 poco_nuvoloso Poco Nuvoloso 27 23 78 1011 10 O 13
Ieri h: 23:20 poco_nuvoloso Poco Nuvoloso 27 23 78 1011 10 O 11.1
Ieri h: 22:50 poco_nuvoloso Poco Nuvoloso 28 24 78 1011 10 O 9.3
Ieri h: 22:20 poco_nuvoloso Poco Nuvoloso 27 23 78 1011 10 O 11.1
Ieri h: 21:50 poco_nuvoloso Poco Nuvoloso 28 24 78 1011 10 N 5.5
Ieri h: 21:20 poco_nuvoloso Poco Nuvoloso 29 24 74 1010 10 SE 13
Ieri h: 20:50 poco_nuvoloso Poco Nuvoloso 29 24 74 1010 10 E/SE 11.1
Ieri h: 20:20 poco_nuvoloso Poco Nuvoloso 29 24 74 1010 10 E/SE 14.8
Ieri h: 19:50 poco_nuvoloso Poco Nuvoloso 29 23 70 1010 10 E 9.3
Ieri h: 19:20 nuvoloso Nuvoloso 30 24 70 1010 10 E/SE 13
Ieri h: 18:50 nuvoloso Nuvoloso 30 23 66 1009 10 E 16.7
Ieri h: 18:20 nuvoloso Nuvoloso 30 24 70 1009 10 E 16.7
Ieri h: 17:50 nuvoloso Nuvoloso 30 24 70 1009 10 E/NE 16.7
Ieri h: 17:20 molto_nuvoloso Molto Nuvoloso 31 24 66 1009 10 E/NE 29.6
Ieri h: 16:50 molto_nuvoloso Molto Nuvoloso 31 24 66 1009 10 E/NE 25.9
Ieri h: 16:20 nuvoloso Nuvoloso 31 23 62 1009 10 E/NE 24
Ieri h: 15:50 molto_nuvoloso Molto Nuvoloso 32 22 55 1009 10 E/NE 22.2
Ieri h: 15:20 nuvoloso Nuvoloso 32 22 55 1009 10 E/NE 22.2
Ieri h: 14:50 nuvoloso Nuvoloso 32 23 59 1010 10 E/NE 20.3
Ieri h: 14:20 nuvoloso Nuvoloso 32 23 59 1010 10 E 18.5
Ieri h: 13:50 poco_nuvoloso Poco Nuvoloso 32 22 55 1010 10 E/NE 16.7
Ieri h: 13:20 poco_nuvoloso Poco Nuvoloso 32 22 55 1010 10 E 16.7
Ieri h: 12:50 sereno Sereno 32 21 52 1011 10 E 14.8